| time (UTC) | temp F | wind direction | speed knots | gust knots | rain 1hr in | rain 24hr in | rain mn in | humidity % | barometer mb |
| 20260507194511 | 67 | 56 | 0.0 | 1.7 | 0.00 | 0.00 | 0.00 | 44 | 1019.9 |
| 20260507193022 | 66 | 49 | 0.0 | 0.9 | 0.00 | 0.00 | 0.00 | 45 | 1020.1 |
| 20260507191524 | 65 | 75 | 0.0 | 3.5 | 0.00 | 0.00 | 0.00 | 46 | 1020.3 |
| 20260507190022 | 65 | 53 | 0.0 | 0.9 | 0.00 | 0.00 | 0.00 | 47 | 1020.3 |
| 20260507184523 | 63 | 60 | 0.0 | 0.9 | 0.00 | 0.00 | 0.00 | 50 | 1020.5 |
| 20260507183021 | 62 | 296 | 0.0 | 0.9 | 0.00 | 0.00 | 0.00 | 49 | 1020.5 |
| 20260507181519 | 62 | 298 | 0.0 | 0.9 | 0.00 | 0.00 | 0.00 | 50 | 1020.7 |
| 20260507180013 | 62 | 63 | 0.0 | 1.7 | 0.00 | 0.00 | 0.00 | 51 | 1020.8 |
| 20260507174515 | 61 | 58 | 0.0 | 2.6 | 0.00 | 0.00 | 0.00 | 52 | 1021.0 |
| 20260507173022 | 59 | 91 | 0.0 | 0.9 | 0.00 | 0.00 | 0.00 | 54 | 1020.9 |
| 20260507171508 | 59 | 304 | 0.0 | 2.6 | 0.00 | 0.00 | 0.00 | 54 | 1021.0 |
| 20260507170003 | 59 | 58 | 0.0 | 0.0 | 0.00 | 0.00 | 0.00 | 54 | 1020.9 |
| 20260507164504 | 59 | 159 | 0.0 | 1.7 | 0.00 | 0.00 | 0.00 | 56 | 1020.9 |
| 20260507163022 | 57 | 72 | 0.0 | 0.0 | 0.00 | 0.00 | 0.00 | 56 | 1020.9 |
| 20260507161523 | 56 | 90 | 0.0 | 0.0 | 0.00 | 0.00 | 0.00 | 57 | 1021.0 |
| 20260507160018 | 56 | 122 | 0.0 | 0.0 | 0.00 | 0.00 | 0.00 | 57 | 1020.9 |
| 20260507154516 | 56 | 65 | 0.0 | 0.0 | 0.00 | 0.00 | 0.00 | 58 | 1021.1 |
| 20260507153014 | 55 | 64 | 0.0 | 0.0 | 0.00 | 0.00 | 0.00 | 58 | 1021.2 |
| 20260507151511 | 55 | 280 | 0.0 | 0.9 | 0.00 | 0.00 | 0.00 | 59 | 1021.3 |
| 20260507150008 | 54 | 316 | 0.0 | 0.9 | 0.00 | 0.00 | 0.00 | 60 | 1021.3 |
| 20260507144536 | 54 | 297 | 0.0 | 0.9 | 0.00 | 0.00 | 0.00 | 60 | 1021.3 |
| 20260507143025 | 54 | 293 | 0.0 | 0.0 | 0.00 | 0.00 | 0.00 | 60 | 1021.3 |
| 20260507141523 | 53 | 326 | 0.0 | 0.0 | 0.00 | 0.00 | 0.00 | 61 | 1021.1 |
| 20260507140024 | 53 | 304 | 0.0 | 0.0 | 0.00 | 0.00 | 0.00 | 61 | 1020.9 |
| 20260507134517 | 53 | 301 | 0.0 | 0.0 | 0.00 | 0.00 | 0.00 | 61 | 1020.8 |
| 20260507133013 | 53 | 301 | 0.0 | 0.0 | 0.00 | 0.00 | 0.00 | 61 | 1020.7 |
| 20260507131512 | 53 | 301 | 0.0 | 0.0 | 0.00 | 0.00 | 0.00 | 61 | 1020.8 |
| 20260507130026 | 53 | 39 | 0.0 | 0.0 | 0.00 | 0.00 | 0.00 | 62 | 1020.9 |
| 20260507124527 | 53 | 39 | 0.0 | 0.0 | 0.00 | 0.00 | 0.00 | 62 | 1020.9 |
| 20260507123026 | 53 | 34 | 0.0 | 0.0 | 0.00 | 0.00 | 0.00 | 61 | 1020.9 |
| 20260507121524 | 53 | 34 | 0.0 | 0.0 | 0.00 | 0.00 | 0.00 | 61 | 1021.0 |
| 20260507120020 | 53 | 72 | 0.0 | 0.0 | 0.00 | 0.00 | 0.00 | 61 | 1021.1 |
| 20260507114518 | 54 | 300 | 0.0 | 0.0 | 0.00 | 0.00 | 0.00 | 62 | 1021.2 |
| 20260507113014 | 54 | 300 | 0.0 | 0.0 | 0.00 | 0.00 | 0.00 | 62 | 1021.3 |
| 20260507111517 | 54 | 326 | 0.0 | 0.0 | 0.00 | 0.00 | 0.00 | 62 | 1021.3 |
| 20260507110008 | 54 | 297 | 0.0 | 0.0 | 0.00 | 0.00 | 0.00 | 64 | 1021.3 |
| 20260507104509 | 53 | 297 | 0.0 | 0.0 | 0.00 | 0.00 | 0.00 | 66 | 1021.4 |
| 20260507103004 | 54 | 297 | 0.0 | 0.0 | 0.00 | 0.00 | 0.00 | 65 | 1021.5 |
| 20260507101522 | 54 | 295 | 0.0 | 0.0 | 0.00 | 0.00 | 0.00 | 65 | 1021.5 |
| 20260507100020 | 54 | 302 | 0.0 | 0.0 | 0.00 | 0.00 | 0.00 | 65 | 1021.6 |
| 20260507094524 | 54 | 303 | 0.0 | 0.9 | 0.00 | 0.00 | 0.00 | 65 | 1021.7 |
| 20260507093021 | 54 | 265 | 0.0 | 0.9 | 0.00 | 0.00 | 0.00 | 65 | 1021.8 |
| 20260507091514 | 54 | 238 | 0.0 | 0.0 | 0.00 | 0.00 | 0.00 | 65 | 1021.9 |
| 20260507090011 | 54 | 261 | 0.0 | 0.9 | 0.00 | 0.00 | 0.00 | 65 | 1022.0 |
| 20260507084507 | 54 | 298 | 0.0 | 0.9 | 0.00 | 0.00 | 0.00 | 64 | 1022.0 |
| 20260507083026 | 54 | 243 | 0.0 | 0.0 | 0.00 | 0.00 | 0.00 | 64 | 1021.9 |
| 20260507081526 | 54 | 302 | 0.0 | 0.0 | 0.00 | 0.00 | 0.00 | 64 | 1021.9 |
| 20260507080021 | 54 | 296 | 0.0 | 0.9 | 0.00 | 0.00 | 0.00 | 64 | 1022.0 |
| 20260507074522 | 54 | 221 | 0.0 | 0.0 | 0.00 | 0.00 | 0.00 | 65 | 1021.9 |
| 20260507073016 | 54 | 221 | 0.0 | 0.0 | 0.00 | 0.00 | 0.00 | 65 | 1021.9 |
| 20260507071512 | 54 | 219 | 0.0 | 0.0 | 0.00 | 0.00 | 0.00 | 65 | 1021.8 |
| 20260507070018 | 54 | 294 | 0.0 | 0.0 | 0.00 | 0.00 | 0.00 | 65 | 1021.7 |
| 20260507064531 | 53 | 294 | 0.0 | 0.0 | 0.00 | 0.00 | 0.00 | 65 | 1021.7 |
| 20260507063026 | 53 | 295 | 0.0 | 0.0 | 0.00 | 0.00 | 0.00 | 65 | 1021.8 |
| 20260507061524 | 53 | 165 | 0.0 | 0.9 | 0.00 | 0.00 | 0.00 | 65 | 1021.8 |
| 20260507060033 | 53 | 281 | 0.0 | 0.9 | 0.00 | 0.00 | 0.00 | 65 | 1021.8 |
| 20260507054518 | 53 | 278 | 0.0 | 0.9 | 0.00 | 0.00 | 0.00 | 65 | 1021.7 |
| 20260507053017 | 53 | 289 | 0.0 | 1.7 | 0.00 | 0.00 | 0.00 | 64 | 1021.7 |
| 20260507051516 | 53 | 303 | 0.0 | 1.7 | 0.00 | 0.00 | 0.00 | 64 | 1021.7 |
| 20260507050028 | 53 | 285 | 0.0 | 2.6 | 0.00 | 0.00 | 0.00 | 64 | 1021.8 |
| 20260507044545 | 53 | 288 | 0.0 | 2.6 | 0.00 | 0.00 | 0.00 | 64 | 1021.6 |
| 20260507043026 | 54 | 189 | 0.0 | 4.3 | 0.00 | 0.00 | 0.00 | 64 | 1021.5 |
| 20260507041526 | 54 | 329 | 0.9 | 5.2 | 0.00 | 0.00 | 0.00 | 64 | 1021.5 |
| 20260507040031 | 54 | 41 | 0.0 | 5.2 | 0.00 | 0.00 | 0.00 | 63 | 1021.3 |
| 20260507034523 | 55 | 326 | 0.0 | 7.0 | 0.00 | 0.00 | 0.00 | 63 | 1021.0 |
| 20260507033004 | 55 | 299 | 0.9 | 5.2 | 0.00 | 0.00 | 0.00 | 62 | 1020.9 |
| 20260507031503 | 56 | 281 | 0.0 | 6.1 | 0.00 | 0.00 | 0.00 | 61 | 1020.7 |
| 20260507030014 | 57 | 305 | 0.9 | 6.1 | 0.00 | 0.00 | 0.00 | 60 | 1020.7 |
| 20260507024512 | 58 | 285 | 0.9 | 5.2 | 0.00 | 0.00 | 0.00 | 59 | 1020.7 |
| 20260507023009 | 59 | 155 | 0.9 | 5.2 | 0.00 | 0.00 | 0.00 | 57 | 1020.5 |
| 20260507021503 | 60 | 314 | 0.9 | 6.1 | 0.00 | 0.00 | 0.00 | 56 | 1020.6 |
| 20260507020005 | 61 | 271 | 1.7 | 5.2 | 0.00 | 0.00 | 0.00 | 55 | 1020.6 |
| 20260507014503 | 62 | 86 | 0.9 | 7.8 | 0.00 | 0.00 | 0.00 | 54 | 1020.9 |
| 20260507013019 | 63 | 312 | 1.7 | 7.0 | 0.00 | 0.00 | 0.00 | 54 | 1020.7 |
| 20260507011515 | 64 | 56 | 0.9 | 5.2 | 0.00 | 0.00 | 0.00 | 52 | 1020.7 |
| 20260507010013 | 65 | 149 | 0.9 | 8.7 | 0.00 | 0.00 | 0.00 | 51 | 1020.8 |
| 20260507004511 | 66 | 300 | 0.9 | 7.8 | 0.00 | 0.00 | 0.00 | 49 | 1020.8 |
| 20260507003005 | 67 | 327 | 0.9 | 6.1 | 0.00 | 0.00 | 0.00 | 48 | 1020.7 |
| 20260507001506 | 68 | 338 | 0.0 | 6.1 | 0.00 | 0.00 | 0.00 | 48 | 1020.6 |
| 20260507000011 | 67 | 325 | 0.0 | 7.8 | 0.00 | 0.00 | 0.00 | 49 | 1020.5 |
| 20260506234524 | 68 | 304 | 0.9 | 7.8 | 0.00 | 0.00 | 0.00 | 49 | 1020.6 |
| 20260506233022 | 69 | 60 | 0.0 | 7.8 | 0.00 | 0.00 | 0.00 | 47 | 1020.5 |
| 20260506231517 | 70 | 305 | 0.9 | 4.3 | 0.00 | 0.00 | 0.00 | 46 | 1020.5 |
| 20260506230016 | 70 | 305 | 0.0 | 5.2 | 0.00 | 0.00 | 0.00 | 46 | 1020.4 |
| 20260506224512 | 71 | 279 | 0.0 | 3.5 | 0.00 | 0.00 | 0.00 | 48 | 1020.5 |
| 20260506223009 | 72 | 329 | 0.9 | 4.3 | 0.00 | 0.00 | 0.00 | 46 | 1020.6 |
| 20260506221505 | 74 | 105 | 0.0 | 1.7 | 0.00 | 0.00 | 0.00 | 45 | 1020.5 |
| 20260506220031 | 73 | 238 | 0.0 | 1.7 | 0.00 | 0.00 | 0.00 | 45 | 1020.5 |
| 20260506214524 | 74 | 116 | 0.0 | 0.9 | 0.00 | 0.00 | 0.00 | 47 | 1020.5 |
| 20260506213022 | 74 | 312 | 0.0 | 1.7 | 0.00 | 0.00 | 0.00 | 43 | 1020.7 |
| 20260506211522 | 73 | 141 | 0.0 | 1.7 | 0.00 | 0.00 | 0.00 | 46 | 1020.7 |
| 20260506210021 | 72 | 118 | 0.0 | 1.7 | 0.00 | 0.00 | 0.00 | 45 | 1020.8 |
| 20260506204515 | 71 | 142 | 0.0 | 1.7 | 0.00 | 0.00 | 0.00 | 47 | 1020.9 |
| 20260506203011 | 71 | 145 | 0.0 | 0.9 | 0.00 | 0.00 | 0.00 | 46 | 1021.1 |
| 20260506201531 | 71 | 221 | 0.0 | 0.9 | 0.00 | 0.00 | 0.00 | 49 | 1021.1 |
| 20260506200030 | 70 | 241 | 0.0 | 2.6 | 0.00 | 0.00 | 0.00 | 48 | 1021.3 |